Time,TemperatureF,DewpointF,PressureIn,WindDirection,WindDirectionDegrees,WindSpeedMPH,WindSpeedGustMPH,Humidity,HourlyPrecipIn,Conditions,Clouds,dailyrainin,SoftwareType,DateUTC
2013-06-16 00:01:00,75.9,54.8,30.03,ENE,73,0.0,2.7,48,0.00,,---,0.00,VWS V14.01,2013-06-16 04:01:00,
2013-06-16 00:02:00,75.9,54.8,30.03,ENE,73,0.0,0.0,48,0.00,,---,0.00,VWS V14.01,2013-06-16 04:02:00,
2013-06-16 00:07:00,75.7,54.7,30.03,ENE,73,0.0,0.0,48,0.00,,---,0.00,VWS V14.01,2013-06-16 04:07:00,
2013-06-16 00:12:00,75.6,54.5,30.03,NE,44,0.0,0.0,48,0.00,,---,0.00,VWS V14.01,2013-06-16 04:12:00,
2013-06-16 00:17:00,75.4,54.3,30.06,NE,44,0.0,0.0,48,0.00,,---,0.00,VWS V14.01,2013-06-16 04:17:00,
2013-06-16 00:22:00,75.2,54.2,30.06,NE,44,0.0,0.0,48,0.00,,---,0.00,VWS V14.01,2013-06-16 04:22:00,
2013-06-16 00:27:00,75.0,54.6,30.06,NE,44,0.0,0.0,49,0.00,,---,0.00,VWS V14.01,2013-06-16 04:27:00,
2013-06-16 00:32:00,74.8,54.4,30.06,NE,44,0.0,0.0,49,0.00,,---,0.00,VWS V14.01,2013-06-16 04:32:00,
2013-06-16 00:37:00,74.5,54.1,30.06,NE,44,0.0,0.0,49,0.00,,---,0.00,VWS V14.01,2013-06-16 04:37:00,
2013-06-16 00:42:00,74.3,53.9,30.06,NE,44,0.0,0.0,49,0.00,,---,0.00,VWS V14.01,2013-06-16 04:42:00,
2013-06-16 00:47:00,74.3,53.9,30.06,NE,44,0.0,0.0,49,0.00,,---,0.00,VWS V14.01,2013-06-16 04:47:00,
2013-06-16 00:52:00,74.1,54.3,30.06,NE,44,0.0,0.0,50,0.00,,---,0.00,VWS V14.01,2013-06-16 04:52:00,
2013-06-16 00:57:00,73.9,54.2,30.06,NE,44,0.0,0.0,50,0.00,,---,0.00,VWS V14.01,2013-06-16 04:57:00,
2013-06-16 01:02:00,73.9,54.7,30.06,NE,44,0.0,0.0,51,0.00,,---,0.00,VWS V14.01,2013-06-16 05:02:00,
2013-06-16 01:07:00,73.9,54.7,30.06,NE,44,0.0,0.0,51,0.00,,---,0.00,VWS V14.01,2013-06-16 05:07:00,
2013-06-16 01:15:00,74.1,54.9,30.06,NE,44,0.0,0.0,51,0.00,,---,0.00,VWS V14.01,2013-06-16 05:15:00,
2013-06-16 01:20:00,74.3,55.6,30.06,ENE,70,0.0,0.0,52,0.00,,---,0.00,VWS V14.01,2013-06-16 05:20:00,
2013-06-16 01:25:00,74.7,55.9,30.06,ENE,58,0.0,0.0,52,0.00,,---,0.00,VWS V14.01,2013-06-16 05:25:00,
2013-06-16 01:30:00,74.8,56.0,30.06,ENE,62,0.0,0.0,52,0.00,,---,0.00,VWS V14.01,2013-06-16 05:30:00,
2013-06-16 01:35:00,75.0,56.2,30.06,NE,55,2.2,3.1,52,0.00,,---,0.00,VWS V14.01,2013-06-16 05:35:00,
2013-06-16 01:40:00,75.2,56.4,30.06,East,87,2.2,2.2,52,0.00,,---,0.00,VWS V14.01,2013-06-16 05:40:00,
2013-06-16 01:45:00,75.4,56.5,30.06,East,82,0.0,0.0,52,0.00,,---,0.00,VWS V14.01,2013-06-16 05:45:00,
2013-06-16 01:50:00,75.4,56.5,30.06,ENE,63,3.1,4.0,52,0.00,,---,0.00,VWS V14.01,2013-06-16 05:50:00,
2013-06-16 01:55:00,75.4,56.5,30.06,ENE,70,2.2,3.1,52,0.00,,---,0.00,VWS V14.01,2013-06-16 05:55:00,
2013-06-16 02:00:00,75.4,56.5,30.06,ENE,70,0.0,0.0,52,0.00,,---,0.00,VWS V14.01,2013-06-16 06:00:00,
2013-06-16 02:05:00,75.4,56.5,30.06,ENE,70,0.0,0.0,52,0.00,,---,0.00,VWS V14.01,2013-06-16 06:05:00,
2013-06-16 02:10:00,75.4,56.5,30.06,ENE,70,0.0,0.0,52,0.00,,---,0.00,VWS V14.01,2013-06-16 06:10:00,
2013-06-16 02:15:00,75.4,56.5,30.06,ENE,70,0.0,0.0,52,0.00,,---,0.00,VWS V14.01,2013-06-16 06:15:00,
2013-06-16 02:20:00,75.4,56.5,30.06,ENE,70,0.0,0.0,52,0.00,,---,0.00,VWS V14.01,2013-06-16 06:20:00,
2013-06-16 02:25:00,75.2,56.4,30.06,ENE,70,0.0,0.0,52,0.00,,---,0.00,VWS V14.01,2013-06-16 06:25:00,
2013-06-16 02:30:00,75.2,56.4,30.06,ENE,70,0.0,0.0,52,0.00,,---,0.00,VWS V14.01,2013-06-16 06:30:00,
2013-06-16 02:35:00,75.2,56.4,30.06,ENE,70,0.0,0.0,52,0.00,,---,0.00,VWS V14.01,2013-06-16 06:35:00,
2013-06-16 02:40:00,75.0,56.2,30.06,ENE,70,0.0,0.0,52,0.00,,---,0.00,VWS V14.01,2013-06-16 06:40:00,
2013-06-16 02:45:00,75.0,56.2,30.06,ENE,70,0.0,0.0,52,0.00,,---,0.00,VWS V14.01,2013-06-16 06:45:00,
2013-06-16 02:50:00,74.8,56.0,30.06,ENE,70,0.0,0.0,52,0.00,,---,0.00,VWS V14.01,2013-06-16 06:50:00,
2013-06-16 02:55:00,74.8,56.0,30.06,ENE,70,0.0,0.0,52,0.00,,---,0.00,VWS V14.01,2013-06-16 06:55:00,
2013-06-16 03:00:00,74.7,56.4,30.03,ENE,70,0.0,0.0,53,0.00,,---,0.00,VWS V14.01,2013-06-16 07:00:00,
2013-06-16 03:05:00,74.7,56.4,30.03,ENE,70,0.0,0.0,53,0.00,,---,0.00,VWS V14.01,2013-06-16 07:05:00,
2013-06-16 03:10:00,74.7,56.4,30.03,ENE,70,0.0,0.0,53,0.00,,---,0.00,VWS V14.01,2013-06-16 07:10:00,
2013-06-16 03:15:00,74.7,56.4,30.06,ENE,70,0.0,0.0,53,0.00,,---,0.00,VWS V14.01,2013-06-16 07:15:00,
2013-06-16 03:20:00,74.7,56.4,30.06,ENE,70,0.0,0.0,53,0.00,,---,0.00,VWS V14.01,2013-06-16 07:20:00,
2013-06-16 03:59:00,74.5,56.8,30.06,ENE,70,0.0,0.0,54,0.00,,---,0.00,VWS V14.01,2013-06-16 07:59:00,
2013-06-16 04:04:00,74.5,56.8,30.06,ENE,70,0.0,0.0,54,0.00,,---,0.00,VWS V14.01,2013-06-16 08:04:00,
2013-06-16 04:09:00,74.5,56.8,30.06,ENE,70,0.0,0.0,54,0.00,,---,0.00,VWS V14.01,2013-06-16 08:09:00,
2013-06-16 04:14:00,74.5,56.8,30.06,ENE,70,0.0,0.0,54,0.00,,---,0.00,VWS V14.01,2013-06-16 08:14:00,
2013-06-16 04:19:00,74.5,56.8,30.06,ENE,70,0.0,0.0,54,0.00,,---,0.00,VWS V14.01,2013-06-16 08:19:00,
2013-06-16 04:24:00,74.5,56.8,30.06,ENE,70,0.0,0.0,54,0.00,,---,0.00,VWS V14.01,2013-06-16 08:24:00,
2013-06-16 04:29:00,74.5,56.8,30.06,ENE,70,0.0,0.0,54,0.00,,---,0.00,VWS V14.01,2013-06-16 08:29:00,
2013-06-16 04:34:00,74.5,56.8,30.03,ENE,70,0.0,0.0,54,0.00,,---,0.00,VWS V14.01,2013-06-16 08:34:00,
2013-06-16 04:39:00,74.5,56.8,30.03,ENE,70,0.0,0.0,54,0.00,,---,0.00,VWS V14.01,2013-06-16 08:39:00,
2013-06-16 04:44:00,74.5,56.8,30.03,ENE,70,0.0,0.0,54,0.00,,---,0.00,VWS V14.01,2013-06-16 08:44:00,
2013-06-16 04:49:00,74.5,57.3,30.03,NE,43,0.0,0.0,55,0.00,,---,0.00,VWS V14.01,2013-06-16 08:49:00,
2013-06-16 04:54:00,74.5,57.3,30.03,ENE,73,0.0,0.0,55,0.00,,---,0.00,VWS V14.01,2013-06-16 08:54:00,
2013-06-16 04:59:00,74.5,57.3,30.03,East,91,0.0,0.0,55,0.00,,---,0.00,VWS V14.01,2013-06-16 08:59:00,
2013-06-16 05:04:00,74.5,57.3,30.03,East,91,0.0,0.0,55,0.00,,---,0.00,VWS V14.01,2013-06-16 09:04:00,
2013-06-16 05:09:00,74.5,57.3,30.03,East,91,0.0,0.0,55,0.00,,---,0.00,VWS V14.01,2013-06-16 09:09:00,
2013-06-16 05:14:00,74.5,57.3,30.03,East,91,0.0,0.0,55,0.00,,---,0.00,VWS V14.01,2013-06-16 09:14:00,
2013-06-16 05:18:00,74.5,57.3,30.03,East,91,0.0,0.0,55,0.00,,---,0.00,VWS V14.01,2013-06-16 09:18:00,
2013-06-16 05:23:00,74.7,57.9,30.03,East,89,0.0,0.0,56,0.00,,---,0.00,VWS V14.01,2013-06-16 09:23:00,
2013-06-16 05:28:00,74.7,57.9,30.03,East,89,0.0,0.0,56,0.00,,---,0.00,VWS V14.01,2013-06-16 09:28:00,
2013-06-16 05:33:00,74.7,57.9,30.06,East,89,0.0,0.0,56,0.00,,---,0.00,VWS V14.01,2013-06-16 09:33:00,
2013-06-16 05:38:00,74.8,58.1,30.06,East,89,0.0,0.0,56,0.00,,---,0.00,VWS V14.01,2013-06-16 09:38:00,
2013-06-16 05:43:00,74.8,58.1,30.06,East,89,0.0,0.0,56,0.00,,---,0.00,VWS V14.01,2013-06-16 09:43:00,
2013-06-16 05:48:00,74.8,58.1,30.06,East,89,0.0,0.0,56,0.00,,---,0.00,VWS V14.01,2013-06-16 09:48:00,
2013-06-16 05:54:00,74.8,58.1,30.06,East,89,0.0,0.0,56,0.00,,---,0.00,VWS V14.01,2013-06-16 09:54:00,
2013-06-16 05:59:00,74.8,58.1,30.06,East,89,0.0,0.0,56,0.00,,---,0.00,VWS V14.01,2013-06-16 09:59:00,
2013-06-16 06:04:00,74.7,57.9,30.06,East,89,0.0,0.0,56,0.00,,---,0.00,VWS V14.01,2013-06-16 10:04:00,
2013-06-16 06:09:00,74.7,57.9,30.06,East,89,0.0,0.0,56,0.00,,---,0.00,VWS V14.01,2013-06-16 10:09:00,
2013-06-16 06:14:00,74.7,57.9,30.06,East,89,0.0,0.0,56,0.00,,---,0.00,VWS V14.01,2013-06-16 10:14:00,
2013-06-16 06:19:00,74.7,57.9,30.06,East,89,0.0,0.0,56,0.00,,---,0.00,VWS V14.01,2013-06-16 10:19:00,
2013-06-16 06:24:00,74.7,57.9,30.06,East,89,0.0,0.0,56,0.00,,---,0.00,VWS V14.01,2013-06-16 10:24:00,
2013-06-16 06:29:00,74.5,57.8,30.06,East,89,0.0,0.0,56,0.00,,---,0.00,VWS V14.01,2013-06-16 10:29:00,
2013-06-16 06:34:00,74.5,57.8,30.06,East,89,0.0,0.0,56,0.00,,---,0.00,VWS V14.01,2013-06-16 10:34:00,
2013-06-16 06:39:00,74.5,58.3,30.06,East,89,0.0,0.0,57,0.00,,---,0.00,VWS V14.01,2013-06-16 10:39:00,
2013-06-16 06:48:00,74.3,58.1,30.06,East,89,0.0,0.0,57,0.00,,---,0.00,VWS V14.01,2013-06-16 10:48:00,
2013-06-16 06:53:00,74.3,58.1,30.06,East,82,0.0,0.0,57,0.00,,---,0.00,VWS V14.01,2013-06-16 10:53:00,
2013-06-16 06:58:00,74.3,58.1,30.06,East,82,0.0,0.0,57,0.00,,---,0.00,VWS V14.01,2013-06-16 10:58:00,
2013-06-16 07:03:00,74.3,58.1,30.03,East,82,0.0,0.0,57,0.00,,---,0.00,VWS V14.01,2013-06-16 11:03:00,
2013-06-16 07:08:00,74.3,58.6,30.03,East,82,0.0,0.0,58,0.00,,---,0.00,VWS V14.01,2013-06-16 11:08:00,
2013-06-16 07:13:00,74.3,58.6,30.03,East,82,0.0,0.0,58,0.00,,---,0.00,VWS V14.01,2013-06-16 11:13:00,
2013-06-16 07:18:00,74.3,58.6,30.06,East,82,0.0,0.0,58,0.00,,---,0.00,VWS V14.01,2013-06-16 11:18:00,
2013-06-16 07:23:00,74.5,59.2,30.06,East,82,0.0,0.0,59,0.00,,---,0.00,VWS V14.01,2013-06-16 11:23:00,
2013-06-16 07:28:00,74.5,59.2,30.06,East,82,0.0,0.0,59,0.00,,---,0.00,VWS V14.01,2013-06-16 11:28:00,
2013-06-16 07:33:00,74.7,59.4,30.06,East,82,0.0,0.0,59,0.00,,---,0.00,VWS V14.01,2013-06-16 11:33:00,
2013-06-16 07:38:00,74.8,59.6,30.06,East,82,0.0,0.0,59,0.00,,---,0.00,VWS V14.01,2013-06-16 11:38:00,
2013-06-16 07:43:00,75.0,60.2,30.06,East,82,0.0,0.0,60,0.00,,---,0.00,VWS V14.01,2013-06-16 11:43:00,
2013-06-16 07:48:00,75.2,59.9,30.06,ENE,57,4.0,4.0,59,0.00,,---,0.00,VWS V14.01,2013-06-16 11:48:00,
2013-06-16 07:53:00,75.4,60.5,30.06,ENE,60,2.7,2.7,60,0.00,,---,0.00,VWS V14.01,2013-06-16 11:53:00,
2013-06-16 07:58:00,75.7,61.3,30.06,ENE,60,0.0,0.0,61,0.00,,---,0.00,VWS V14.01,2013-06-16 11:58:00,
2013-06-16 08:03:00,75.9,61.5,30.06,ENE,60,0.0,0.0,61,0.00,,---,0.00,VWS V14.01,2013-06-16 12:03:00,
2013-06-16 08:08:00,76.1,61.2,30.06,NE,54,0.0,0.0,60,0.00,,---,0.00,VWS V14.01,2013-06-16 12:08:00,
2013-06-16 08:13:00,76.3,61.9,30.06,SSW,195,2.2,3.1,61,0.00,,---,0.00,VWS V14.01,2013-06-16 12:13:00,
2013-06-16 08:18:00,76.6,61.7,30.06,East,80,0.0,0.0,60,0.00,,---,0.00,VWS V14.01,2013-06-16 12:18:00,
2013-06-16 08:23:00,76.8,62.4,30.06,NE,55,3.6,3.6,61,0.00,,---,0.00,VWS V14.01,2013-06-16 12:23:00,
2013-06-16 08:28:00,77.4,62.4,30.06,East,79,0.0,0.0,60,0.00,,---,0.00,VWS V14.01,2013-06-16 12:28:00,
2013-06-16 08:33:00,77.5,62.6,30.06,NE,37,3.1,3.1,60,0.00,,---,0.00,VWS V14.01,2013-06-16 12:33:00,
2013-06-16 08:38:00,77.7,61.8,30.06,NE,46,0.0,0.0,58,0.00,,---,0.00,VWS V14.01,2013-06-16 12:38:00,
2013-06-16 08:43:00,77.7,61.8,30.06,ESE,117,0.0,0.0,58,0.00,,---,0.00,VWS V14.01,2013-06-16 12:43:00,
2013-06-16 08:48:00,77.9,61.5,30.06,ENE,75,0.0,0.0,57,0.00,,---,0.00,VWS V14.01,2013-06-16 12:48:00,
2013-06-16 08:53:00,77.9,61.5,30.06,NE,53,0.0,2.2,57,0.00,,---,0.00,VWS V14.01,2013-06-16 12:53:00,
2013-06-16 08:58:00,78.3,61.8,30.06,ENE,63,0.0,2.7,57,0.00,,---,0.00,VWS V14.01,2013-06-16 12:58:00,
2013-06-16 09:03:00,78.6,61.6,30.06,NNE,17,3.6,4.0,56,0.00,,---,0.00,VWS V14.01,2013-06-16 13:03:00,
2013-06-16 09:08:00,78.8,61.3,30.06,ESE,111,0.0,2.7,55,0.00,,---,0.00,VWS V14.01,2013-06-16 13:08:00,
2013-06-16 09:16:00,79.2,60.6,30.09,East,81,3.1,6.3,53,0.00,,---,0.00,VWS V14.01,2013-06-16 13:16:00,
2013-06-16 09:21:00,79.3,61.3,30.09,ENE,60,2.7,3.6,54,0.00,,---,0.00,VWS V14.01,2013-06-16 13:21:00,
2013-06-16 09:26:00,79.3,60.7,30.09,ENE,68,0.0,3.1,53,0.00,,---,0.00,VWS V14.01,2013-06-16 13:26:00,
2013-06-16 09:31:00,79.3,60.2,30.09,ENE,77,3.6,3.6,52,0.00,,---,0.00,VWS V14.01,2013-06-16 13:31:00,
2013-06-16 09:36:00,79.5,60.9,30.09,NE,53,2.2,8.1,53,0.00,,---,0.00,VWS V14.01,2013-06-16 13:36:00,
2013-06-16 09:41:00,79.5,60.9,30.09,SSE,164,0.0,0.0,53,0.00,,---,0.00,VWS V14.01,2013-06-16 13:41:00,
2013-06-16 09:46:00,79.9,60.7,30.09,East,93,3.1,3.1,52,0.00,,---,0.00,VWS V14.01,2013-06-16 13:46:00,
2013-06-16 09:51:00,80.2,61.0,30.09,NE,53,3.1,3.6,52,0.00,,---,0.00,VWS V14.01,2013-06-16 13:51:00,
2013-06-16 09:56:00,80.4,61.2,30.09,SE,127,0.0,2.7,52,0.00,,---,0.00,VWS V14.01,2013-06-16 13:56:00,
2013-06-16 10:01:00,80.4,60.7,30.06,NE,43,3.6,3.6,51,0.00,,---,0.00,VWS V14.01,2013-06-16 14:01:00,
2013-06-16 10:06:00,80.4,60.7,30.06,ENE,63,4.0,4.0,51,0.00,,---,0.00,VWS V14.01,2013-06-16 14:06:00,
2013-06-16 10:11:00,80.6,60.8,30.06,SE,142,0.0,0.0,51,0.00,,---,0.00,VWS V14.01,2013-06-16 14:11:00,
2013-06-16 10:16:00,80.6,60.8,30.06,SE,137,0.0,0.0,51,0.00,,---,0.00,VWS V14.01,2013-06-16 14:16:00,
2013-06-16 10:21:00,80.8,61.0,30.06,ENE,70,0.0,4.0,51,0.00,,---,0.00,VWS V14.01,2013-06-16 14:21:00,
2013-06-16 10:26:00,81.0,61.2,30.06,ENE,70,4.0,4.0,51,0.00,,---,0.00,VWS V14.01,2013-06-16 14:26:00,
2013-06-16 10:31:00,81.1,61.3,30.06,ESE,110,2.7,2.7,51,0.00,,---,0.00,VWS V14.01,2013-06-16 14:31:00,
2013-06-16 10:36:00,81.0,61.2,30.06,ENE,67,3.1,4.0,51,0.00,,---,0.00,VWS V14.01,2013-06-16 14:36:00,
2013-06-16 10:41:00,81.1,61.3,30.06,ENE,58,0.0,2.7,51,0.00,,---,0.00,VWS V14.01,2013-06-16 14:41:00,
2013-06-16 10:46:00,81.5,61.7,30.06,NNW,329,0.0,0.0,51,0.00,,---,0.00,VWS V14.01,2013-06-16 14:46:00,
2013-06-16 10:51:00,81.7,61.2,30.06,NE,38,3.6,3.6,50,0.00,,---,0.00,VWS V14.01,2013-06-16 14:51:00,
2013-06-16 10:56:00,82.0,61.6,30.06,NE,39,2.2,3.1,50,0.00,,---,0.00,VWS V14.01,2013-06-16 14:56:00,
2013-06-16 11:01:00,82.6,62.1,30.06,South,176,4.0,4.9,50,0.00,,---,0.00,VWS V14.01,2013-06-16 15:01:00,
2013-06-16 11:06:00,82.8,62.2,30.06,SSW,209,3.1,3.1,50,0.00,,---,0.00,VWS V14.01,2013-06-16 15:06:00,
2013-06-16 11:11:00,82.9,61.8,30.06,NNW,327,2.2,2.7,49,0.00,,---,0.00,VWS V14.01,2013-06-16 15:11:00,
2013-06-16 11:16:00,83.3,62.7,30.06,South,191,3.1,3.6,50,0.00,,---,0.00,VWS V14.01,2013-06-16 15:16:00,
2013-06-16 11:21:00,83.7,62.5,30.06,SSE,157,3.1,3.1,49,0.00,,---,0.00,VWS V14.01,2013-06-16 15:21:00,
2013-06-16 11:26:00,83.8,62.7,30.06,WNW,285,2.2,2.2,49,0.00,,---,0.00,VWS V14.01,2013-06-16 15:26:00,
2013-06-16 11:31:00,83.8,62.7,30.06,South,169,3.1,3.1,49,0.00,,---,0.00,VWS V14.01,2013-06-16 15:31:00,
2013-06-16 11:36:00,83.8,62.1,30.06,SSW,193,0.0,3.1,48,0.00,,---,0.00,VWS V14.01,2013-06-16 15:36:00,
2013-06-16 11:41:00,83.8,60.9,30.06,East,98,2.2,3.6,46,0.00,,---,0.00,VWS V14.01,2013-06-16 15:41:00,
2013-06-16 11:46:00,83.8,61.5,30.06,NE,48,3.1,3.1,47,0.00,,---,0.00,VWS V14.01,2013-06-16 15:46:00,
2013-06-16 11:51:00,84.4,62.6,30.06,South,183,0.0,4.0,48,0.00,,---,0.00,VWS V14.01,2013-06-16 15:51:00,
2013-06-16 11:56:00,84.7,61.1,30.06,NNE,25,3.1,5.8,45,0.00,,---,0.00,VWS V14.01,2013-06-16 15:56:00,
2013-06-16 12:01:00,84.9,61.2,30.06,NE,36,2.7,2.7,45,0.00,,---,0.00,VWS V14.01,2013-06-16 16:01:00,
2013-06-16 12:06:00,85.3,61.6,30.06,SSW,210,0.0,3.6,45,0.00,,---,0.00,VWS V14.01,2013-06-16 16:06:00,
2013-06-16 12:11:00,85.5,61.7,30.06,SW,220,0.0,3.1,45,0.00,,---,0.00,VWS V14.01,2013-06-16 16:11:00,
2013-06-16 12:17:00,85.6,61.9,30.06,East,82,0.0,2.2,45,0.00,,---,0.00,VWS V14.01,2013-06-16 16:17:00,
2013-06-16 12:22:00,85.1,60.8,30.06,NE,42,3.6,5.4,44,0.00,,---,0.00,VWS V14.01,2013-06-16 16:22:00,
2013-06-16 12:27:00,84.7,59.8,30.06,NE,42,2.7,5.4,43,0.00,,---,0.00,VWS V14.01,2013-06-16 16:27:00,
2013-06-16 12:32:00,84.6,60.3,30.06,ENE,77,2.2,2.7,44,0.00,,---,0.00,VWS V14.01,2013-06-16 16:32:00,
2013-06-16 12:37:00,84.6,60.9,30.06,SE,135,0.0,0.0,45,0.00,,---,0.00,VWS V14.01,2013-06-16 16:37:00,
2013-06-16 12:42:00,84.4,60.7,30.06,North,349,0.0,0.0,45,0.00,,---,0.00,VWS V14.01,2013-06-16 16:42:00,
2013-06-16 12:47:00,84.2,60.6,30.06,NNE,12,0.0,0.0,45,0.00,,---,0.00,VWS V14.01,2013-06-16 16:47:00,
2013-06-16 12:52:00,84.0,61.0,30.06,East,100,0.0,0.0,46,0.00,,---,0.00,VWS V14.01,2013-06-16 16:52:00,
2013-06-16 12:57:00,84.0,61.0,30.06,SE,124,0.0,0.0,46,0.00,,---,0.00,VWS V14.01,2013-06-16 16:57:00,
2013-06-16 13:02:00,84.2,61.2,30.06,East,92,2.2,2.2,46,0.00,,---,0.00,VWS V14.01,2013-06-16 17:02:00,
2013-06-16 13:07:00,84.2,61.2,30.06,SSW,195,2.2,2.2,46,0.00,,---,0.00,VWS V14.01,2013-06-16 17:07:00,
2013-06-16 13:12:00,84.7,60.4,30.06,NE,37,3.6,5.4,44,0.00,,---,0.00,VWS V14.01,2013-06-16 17:12:00,
2013-06-16 13:17:00,85.3,60.3,30.06,NNE,17,0.0,0.0,43,0.00,,---,0.00,VWS V14.01,2013-06-16 17:17:00,
2013-06-16 13:22:00,85.5,61.1,30.06,East,81,5.8,5.8,44,0.00,,---,0.00,VWS V14.01,2013-06-16 17:22:00,
2013-06-16 13:27:00,85.6,60.6,30.06,ENE,59,2.7,3.1,43,0.00,,---,0.00,VWS V14.01,2013-06-16 17:27:00,
2013-06-16 13:32:00,85.6,60.6,30.06,SSE,162,0.0,0.0,43,0.00,,---,0.00,VWS V14.01,2013-06-16 17:32:00,
2013-06-16 13:37:00,85.3,60.3,30.06,ENE,69,4.0,4.0,43,0.00,,---,0.00,VWS V14.01,2013-06-16 17:37:00,
2013-06-16 13:42:00,84.9,60.0,30.06,NE,49,3.1,5.8,43,0.00,,---,0.00,VWS V14.01,2013-06-16 17:42:00,
2013-06-16 13:47:00,84.7,59.8,30.06,NE,53,2.2,4.0,43,0.00,,---,0.00,VWS V14.01,2013-06-16 17:47:00,
2013-06-16 13:52:00,84.6,59.6,30.06,ENE,58,0.0,0.0,43,0.00,,---,0.00,VWS V14.01,2013-06-16 17:52:00,
2013-06-16 13:57:00,84.7,60.4,30.06,NNE,30,0.0,2.7,44,0.00,,---,0.00,VWS V14.01,2013-06-16 17:57:00,
2013-06-16 14:02:00,85.3,60.9,30.06,NW,306,6.7,6.7,44,0.00,,---,0.00,VWS V14.01,2013-06-16 18:02:00,
2013-06-16 14:07:00,86.2,61.1,30.06,NNE,23,0.0,3.1,43,0.00,,---,0.00,VWS V14.01,2013-06-16 18:07:00,
2013-06-16 14:12:00,86.5,61.4,30.06,ENE,66,2.2,2.7,43,0.00,,---,0.00,VWS V14.01,2013-06-16 18:12:00,
2013-06-16 14:17:00,87.1,61.9,30.03,East,81,3.1,3.1,43,0.00,,---,0.00,VWS V14.01,2013-06-16 18:17:00,
2013-06-16 14:22:00,87.1,61.2,30.03,North,2,2.7,2.7,42,0.00,,---,0.00,VWS V14.01,2013-06-16 18:22:00,
2013-06-16 14:27:00,86.7,60.9,30.03,NE,48,4.0,4.0,42,0.00,,---,0.00,VWS V14.01,2013-06-16 18:27:00,
2013-06-16 14:32:00,86.4,59.9,30.03,East,80,3.1,3.1,41,0.00,,---,0.00,VWS V14.01,2013-06-16 18:32:00,
2013-06-16 14:37:00,86.0,60.3,30.03,ENE,62,0.0,0.0,42,0.00,,---,0.00,VWS V14.01,2013-06-16 18:37:00,
2013-06-16 14:42:00,85.6,59.3,30.03,NE,43,2.7,5.4,41,0.00,,---,0.00,VWS V14.01,2013-06-16 18:42:00,
2013-06-16 15:42:00,86.0,60.3,30.03,East,86,0.0,0.0,42,0.00,,---,0.00,VWS V14.01,2013-06-16 19:42:00,
2013-06-16 15:47:00,86.5,60.1,30.03,South,182,0.0,4.9,41,0.00,,---,0.00,VWS V14.01,2013-06-16 19:47:00,
2013-06-16 15:52:00,86.9,60.4,30.03,NNE,26,3.6,6.3,41,0.00,,---,0.00,VWS V14.01,2013-06-16 19:52:00,
2013-06-16 15:57:00,87.1,60.5,30.03,West,259,4.0,4.0,41,0.00,,---,0.00,VWS V14.01,2013-06-16 19:57:00,
2013-06-16 16:02:00,87.1,59.8,30.00,NE,35,2.7,2.7,40,0.00,,---,0.00,VWS V14.01,2013-06-16 20:02:00,
2013-06-16 16:07:00,87.4,60.2,30.00,ESE,115,3.6,3.6,40,0.00,,---,0.00,VWS V14.01,2013-06-16 20:07:00,
2013-06-16 16:12:00,87.6,60.3,30.00,SE,142,2.7,3.6,40,0.00,,---,0.00,VWS V14.01,2013-06-16 20:12:00,
2013-06-16 16:17:00,87.8,59.8,30.00,SSW,206,2.2,2.7,39,0.00,,---,0.00,VWS V14.01,2013-06-16 20:17:00,
2013-06-16 16:22:00,87.6,59.6,30.00,ENE,64,0.0,4.0,39,0.00,,---,0.00,VWS V14.01,2013-06-16 20:22:00,
2013-06-16 16:27:00,87.6,59.6,30.00,ESE,115,5.4,5.4,39,0.00,,---,0.00,VWS V14.01,2013-06-16 20:27:00,
2013-06-16 16:32:00,87.3,59.3,30.00,South,184,2.7,4.9,39,0.00,,---,0.00,VWS V14.01,2013-06-16 20:32:00,
2013-06-16 16:37:00,86.7,58.8,30.00,East,86,4.9,7.6,39,0.00,,---,0.00,VWS V14.01,2013-06-16 20:37:00,
2013-06-16 16:42:00,86.4,59.2,30.00,West,280,2.7,4.9,40,0.00,,---,0.00,VWS V14.01,2013-06-16 20:42:00,
2013-06-16 16:47:00,86.0,58.9,30.00,NE,40,6.3,6.3,40,0.00,,---,0.00,VWS V14.01,2013-06-16 20:47:00,
2013-06-16 16:52:00,86.2,59.0,30.00,East,83,2.7,4.0,40,0.00,,---,0.00,VWS V14.01,2013-06-16 20:52:00,
2013-06-16 17:18:00,86.2,59.0,30.00,South,181,2.7,2.7,40,0.00,,---,0.00,VWS V14.01,2013-06-16 21:18:00,
2013-06-16 17:23:00,85.6,58.6,30.00,ENE,76,0.0,2.7,40,0.00,,---,0.00,VWS V14.01,2013-06-16 21:23:00,
2013-06-16 17:28:00,85.3,58.2,30.00,ESE,108,0.0,0.0,40,0.00,,---,0.00,VWS V14.01,2013-06-16 21:28:00,
2013-06-16 17:33:00,84.9,57.9,30.00,SE,137,4.0,4.0,40,0.00,,---,0.00,VWS V14.01,2013-06-16 21:33:00,
2013-06-16 17:38:00,84.7,57.8,30.00,East,81,0.0,0.0,40,0.00,,---,0.00,VWS V14.01,2013-06-16 21:38:00,
2013-06-16 17:43:00,84.4,57.5,30.00,East,80,0.0,0.0,40,0.00,,---,0.00,VWS V14.01,2013-06-16 21:43:00,
2013-06-16 17:48:00,84.2,57.3,30.00,SSW,212,2.7,2.7,40,0.00,,---,0.00,VWS V14.01,2013-06-16 21:48:00,
2013-06-16 17:53:00,83.8,57.7,30.00,ENE,72,2.7,2.7,41,0.00,,---,0.00,VWS V14.01,2013-06-16 21:53:00,
2013-06-16 17:58:00,83.7,57.5,30.00,ENE,64,4.9,4.9,41,0.00,,---,0.00,VWS V14.01,2013-06-16 21:58:00,
2013-06-16 18:03:00,83.5,58.0,30.00,East,85,2.2,2.7,42,0.00,,---,0.00,VWS V14.01,2013-06-16 22:03:00,
2013-06-16 18:08:00,83.1,57.7,30.00,NE,56,0.0,0.0,42,0.00,,---,0.00,VWS V14.01,2013-06-16 22:08:00,
2013-06-16 18:13:00,83.1,58.3,30.00,ENE,73,2.7,6.3,43,0.00,,---,0.00,VWS V14.01,2013-06-16 22:13:00,
2013-06-16 18:18:00,82.9,58.2,30.00,ESE,112,3.1,3.6,43,0.00,,---,0.00,VWS V14.01,2013-06-16 22:18:00,
2013-06-16 18:23:00,82.9,58.2,30.00,ENE,74,2.7,2.7,43,0.00,,---,0.00,VWS V14.01,2013-06-16 22:23:00,
2013-06-16 18:28:00,82.8,58.0,30.00,NE,55,0.0,0.0,43,0.00,,---,0.00,VWS V14.01,2013-06-16 22:28:00,
2013-06-16 18:33:00,82.4,57.7,30.00,East,90,0.0,0.0,43,0.00,,---,0.00,VWS V14.01,2013-06-16 22:33:00,
2013-06-16 18:38:00,82.2,58.2,30.00,ENE,67,2.7,2.7,44,0.00,,---,0.00,VWS V14.01,2013-06-16 22:38:00,
2013-06-16 18:43:00,82.0,58.0,30.00,South,177,0.0,0.0,44,0.00,,---,0.00,VWS V14.01,2013-06-16 22:43:00,
2013-06-16 18:48:00,81.9,57.8,30.03,SSE,155,0.0,0.0,44,0.00,,---,0.00,VWS V14.01,2013-06-16 22:48:00,
2013-06-16 18:53:00,81.9,58.5,30.03,SSE,148,0.0,0.0,45,0.00,,---,0.00,VWS V14.01,2013-06-16 22:53:00,
2013-06-16 18:58:00,81.7,58.9,30.03,ENE,63,0.0,0.0,46,0.00,,---,0.00,VWS V14.01,2013-06-16 22:58:00,
2013-06-16 19:03:00,81.5,58.1,30.03,ENE,74,0.0,0.0,45,0.00,,---,0.00,VWS V14.01,2013-06-16 23:03:00,
2013-06-16 19:08:00,81.5,58.8,30.03,NE,51,0.0,0.0,46,0.00,,---,0.00,VWS V14.01,2013-06-16 23:08:00,
2013-06-16 19:13:00,81.5,59.3,30.03,SW,230,0.0,0.0,47,0.00,,---,0.00,VWS V14.01,2013-06-16 23:13:00,
2013-06-16 19:18:00,81.3,59.2,30.00,NE,52,0.0,0.0,47,0.00,,---,0.00,VWS V14.01,2013-06-16 23:18:00,
2013-06-16 19:23:00,81.3,59.8,30.00,ENE,64,4.0,4.0,48,0.00,,---,0.00,VWS V14.01,2013-06-16 23:23:00,
2013-06-16 19:28:00,81.3,59.2,30.00,ENE,63,0.0,0.0,47,0.00,,---,0.00,VWS V14.01,2013-06-16 23:28:00,
2013-06-16 19:33:00,81.1,59.0,30.00,ENE,63,0.0,0.0,47,0.00,,---,0.00,VWS V14.01,2013-06-16 23:33:00,
2013-06-16 19:38:00,81.1,59.0,30.00,ENE,64,2.2,2.2,47,0.00,,---,0.00,VWS V14.01,2013-06-16 23:38:00,
2013-06-16 19:43:00,81.1,59.6,30.00,ENE,64,0.0,0.0,48,0.00,,---,0.00,VWS V14.01,2013-06-16 23:43:00,
2013-06-16 19:48:00,81.0,59.4,30.00,ENE,64,0.0,0.0,48,0.00,,---,0.00,VWS V14.01,2013-06-16 23:48:00,
2013-06-16 19:53:00,80.8,59.9,30.00,ENE,64,0.0,2.2,49,0.00,,---,0.00,VWS V14.01,2013-06-16 23:53:00,
2013-06-16 19:58:00,80.8,59.9,30.00,SSE,156,0.0,0.0,49,0.00,,---,0.00,VWS V14.01,2013-06-16 23:58:00,
2013-06-16 20:03:00,80.6,59.7,30.03,NE,48,0.0,0.0,49,0.00,,---,0.00,VWS V14.01,2013-06-17 00:03:00,
2013-06-16 20:08:00,80.6,59.7,30.03,East,80,0.0,0.0,49,0.00,,---,0.00,VWS V14.01,2013-06-17 00:08:00,
2013-06-16 20:13:00,80.4,60.1,30.03,ENE,71,3.1,3.1,50,0.00,,---,0.00,VWS V14.01,2013-06-17 00:13:00,
2013-06-16 20:18:00,80.4,60.1,30.03,ENE,59,2.7,3.1,50,0.00,,---,0.00,VWS V14.01,2013-06-17 00:18:00,
2013-06-16 20:23:00,80.4,60.1,30.03,East,85,0.0,0.0,50,0.00,,---,0.00,VWS V14.01,2013-06-17 00:23:00,
2013-06-16 20:28:00,80.4,60.7,30.03,East,98,3.6,5.8,51,0.00,,---,0.00,VWS V14.01,2013-06-17 00:28:00,
2013-06-16 20:33:00,80.2,59.9,30.03,NE,54,2.2,3.1,50,0.00,,---,0.00,VWS V14.01,2013-06-17 00:33:00,
2013-06-16 20:38:00,80.2,60.5,30.03,ENE,57,0.0,0.0,51,0.00,,---,0.00,VWS V14.01,2013-06-17 00:38:00,
2013-06-16 20:43:00,80.2,60.5,30.03,South,186,2.2,2.2,51,0.00,,---,0.00,VWS V14.01,2013-06-17 00:43:00,
2013-06-16 20:48:00,80.1,60.3,30.03,NNW,346,0.0,0.0,51,0.00,,---,0.00,VWS V14.01,2013-06-17 00:48:00,
2013-06-16 20:53:00,79.9,60.2,30.03,NNE,22,0.0,0.0,51,0.00,,---,0.00,VWS V14.01,2013-06-17 00:53:00,
2013-06-16 20:58:00,79.9,60.2,30.03,ENE,76,0.0,0.0,51,0.00,,---,0.00,VWS V14.01,2013-06-17 00:58:00,
2013-06-16 21:03:00,79.7,60.0,30.03,ENE,58,0.0,0.0,51,0.00,,---,0.00,VWS V14.01,2013-06-17 01:03:00,
2013-06-16 21:08:00,79.7,60.0,30.03,ENE,73,0.0,0.0,51,0.00,,---,0.00,VWS V14.01,2013-06-17 01:08:00,
2013-06-16 21:13:00,79.7,60.5,30.03,ESE,109,5.8,5.8,52,0.00,,---,0.00,VWS V14.01,2013-06-17 01:13:00,
2013-06-16 21:18:00,79.5,59.8,30.03,ENE,65,2.7,2.7,51,0.00,,---,0.00,VWS V14.01,2013-06-17 01:18:00,
2013-06-16 21:23:00,79.5,60.4,30.03,ENE,62,2.2,2.2,52,0.00,,---,0.00,VWS V14.01,2013-06-17 01:23:00,
2013-06-16 21:28:00,79.3,60.2,30.03,ENE,68,0.0,0.0,52,0.00,,---,0.00,VWS V14.01,2013-06-17 01:28:00,
2013-06-16 21:33:00,79.3,60.2,30.03,North,353,0.0,0.0,52,0.00,,---,0.00,VWS V14.01,2013-06-17 01:33:00,
2013-06-16 21:38:00,79.2,60.0,30.03,NE,39,0.0,0.0,52,0.00,,---,0.00,VWS V14.01,2013-06-17 01:38:00,
2013-06-16 21:43:00,79.2,60.0,30.03,East,82,0.0,3.1,52,0.00,,---,0.00,VWS V14.01,2013-06-17 01:43:00,
2013-06-16 21:48:00,79.2,60.6,30.03,ENE,57,3.6,3.6,53,0.00,,---,0.00,VWS V14.01,2013-06-17 01:48:00,
2013-06-16 21:53:00,79.0,60.4,30.03,ENE,61,2.2,3.1,53,0.00,,---,0.00,VWS V14.01,2013-06-17 01:53:00,
2013-06-16 21:58:00,79.0,60.4,30.03,NE,41,0.0,0.0,53,0.00,,---,0.00,VWS V14.01,2013-06-17 01:58:00,
2013-06-16 22:03:00,79.0,59.9,30.03,South,171,0.0,0.0,52,0.00,,---,0.00,VWS V14.01,2013-06-17 02:03:00,
2013-06-16 22:08:00,79.0,60.4,30.03,SSE,154,0.0,3.1,53,0.00,,---,0.00,VWS V14.01,2013-06-17 02:08:00,
2013-06-16 22:13:00,79.0,60.4,30.03,SSE,154,2.2,2.7,53,0.00,,---,0.00,VWS V14.01,2013-06-17 02:13:00,
2013-06-16 22:18:00,78.8,60.8,30.03,NE,52,0.0,0.0,54,0.00,,---,0.00,VWS V14.01,2013-06-17 02:18:00,
2013-06-16 22:23:00,78.8,60.8,30.03,East,89,0.0,0.0,54,0.00,,---,0.00,VWS V14.01,2013-06-17 02:23:00,
2013-06-16 22:28:00,79.0,61.5,30.03,South,184,0.0,0.0,55,0.00,,---,0.00,VWS V14.01,2013-06-17 02:28:00,
2013-06-16 22:33:00,78.6,61.1,30.06,ESE,119,0.0,0.0,55,0.00,,---,0.00,VWS V14.01,2013-06-17 02:33:00,
2013-06-16 22:38:00,78.6,60.6,30.06,NE,49,0.0,0.0,54,0.00,,---,0.00,VWS V14.01,2013-06-17 02:38:00,
2013-06-16 22:43:00,78.6,60.6,30.06,South,176,0.0,0.0,54,0.00,,---,0.00,VWS V14.01,2013-06-17 02:43:00,
2013-06-16 22:47:00,78.6,61.1,30.06,NE,40,0.0,0.0,55,0.00,,---,0.00,VWS V14.01,2013-06-17 02:47:00,
2013-06-16 22:52:00,78.4,61.0,30.06,South,181,0.0,0.0,55,0.00,,---,0.00,VWS V14.01,2013-06-17 02:52:00,
2013-06-16 22:57:00,78.4,61.0,30.06,ESE,120,0.0,0.0,55,0.00,,---,0.00,VWS V14.01,2013-06-17 02:57:00,
2013-06-16 23:02:00,78.4,61.5,30.06,ENE,69,2.7,2.7,56,0.00,,---,0.00,VWS V14.01,2013-06-17 03:02:00,
2013-06-16 23:07:00,78.4,61.5,30.06,ESE,123,0.0,0.0,56,0.00,,---,0.00,VWS V14.01,2013-06-17 03:07:00,
2013-06-16 23:12:00,78.4,62.0,30.06,ESE,117,0.0,3.1,57,0.00,,---,0.00,VWS V14.01,2013-06-17 03:12:00,
2013-06-16 23:17:00,78.3,61.8,30.06,NNW,346,0.0,0.0,57,0.00,,---,0.00,VWS V14.01,2013-06-17 03:17:00,
2013-06-16 23:22:00,78.3,61.8,30.06,SSE,167,0.0,0.0,57,0.00,,---,0.00,VWS V14.01,2013-06-17 03:22:00,
2013-06-16 23:27:00,78.1,61.6,30.06,NNE,29,0.0,0.0,57,0.00,,---,0.00,VWS V14.01,2013-06-17 03:27:00,
2013-06-16 23:32:00,78.1,61.6,30.06,NNE,29,0.0,0.0,57,0.00,,---,0.00,VWS V14.01,2013-06-17 03:32:00,
2013-06-16 23:37:00,78.1,62.1,30.06,NNE,29,0.0,0.0,58,0.00,,---,0.00,VWS V14.01,2013-06-17 03:37:00,
2013-06-16 23:42:00,77.9,61.5,30.06,ENE,61,0.0,0.0,57,0.00,,---,0.00,VWS V14.01,2013-06-17 03:42:00,
2013-06-16 23:47:00,77.9,61.5,30.06,ENE,61,0.0,0.0,57,0.00,,---,0.00,VWS V14.01,2013-06-17 03:47:00,
2013-06-16 23:52:00,77.9,61.5,30.06,ENE,78,0.0,3.6,57,0.00,,---,0.00,VWS V14.01,2013-06-17 03:52:00,
2013-06-16 23:57:00,77.9,62.0,30.06,ENE,72,2.2,3.1,58,0.00,,---,0.00,VWS V14.01,2013-06-17 03:57:00,